Simultaneous Nadir Overpasses (SNOs) Predictions

Prediction of SNOs between AQUA and NOAA-19 Satellite Orbit:

Table of predicted SNOs for the next 14.0 days since TLE Epoch: 9/28/2024
Index Date (AQUA) Time (AQUA) Lat,Lon (AQUA) SZA (AQUA ) Date (NOAA-19) Time (NOAA-19) Lat,Lon (NOAA-19) SZA (NOAA-19 ) Distance(km) Time Diff (sec)
1 09/28/2024 04:53:26 75.65, 106.46 77.80 09/28/2024 04:52:59 75.66, 106.55 77.80 2.56 27
2 09/28/2024 05:42:48 -75.77, -86.21 102.09 09/28/2024 05:44:01 -75.79, -85.78 102.06 12.07 73
3 09/30/2024 07:52:51 75.62, 61.75 78.59 09/30/2024 07:51:44 75.62, 61.79 78.59 1.20 67
4 09/30/2024 08:42:12 -75.68,-130.76 101.34 09/30/2024 08:42:47 -75.70,-130.70 101.32 2.82 35
5 10/02/2024 11:41:35 -75.63,-175.42 100.57 10/02/2024 11:41:32 -75.65,-175.52 100.55 3.14 3
6 10/02/2024 12:31:08 76.19, -9.49 80.00 10/02/2024 12:32:13 76.18, -6.36 80.03 83.28 65
7 10/04/2024 14:40:57 -75.62, 139.81 99.76 10/04/2024 14:40:16 -75.62, 139.77 99.75 1.16 41
8 10/04/2024 15:30:20 75.69, -52.75 80.33 10/04/2024 15:31:08 75.67, -52.79 80.32 2.51 48
9 10/06/2024 17:40:15 -75.50, 95.37 99.06 10/06/2024 17:39:03 -75.45, 94.57 99.11 22.92 72
10 10/06/2024 18:29:40 75.67, -97.49 81.13 10/06/2024 18:29:52 75.65, -97.50 81.11 3.12 12
11 10/08/2024 21:28:58 75.65,-142.18 81.92 10/08/2024 21:28:35 75.66,-142.10 81.93 2.62 23
12 10/08/2024 22:18:23 -75.89, 24.74 97.84 10/08/2024 22:19:33 -75.92, 26.05 97.78 35.71 70
13 10/11/2024 00:28:14 75.60, 173.16 82.68 10/11/2024 00:27:19 75.61, 173.11 82.69 1.33 55



Historial Predications of SNOs between AQUA and NOAA-19
